Home   Weather   Kunming   Past weeks

Flag for China Past Weather in Kunming, Yunnan, China — Yesterday and Last 2 Weeks

Now
61 °F

Fog.


Feels Like: 61 °F
Forecast: 57 / 69 °F
Wind: 3 mph from East

Location: Kunming Airport

Current Time: Sep 27, 2016 at 8:25:14 AM

Latest Report: Sep 27, 2016 at 8:00 AM


Visibility: 3 mi

Pressure: 30.21 "Hg (24.11 "Hg at 1909m altitude)

Humidity: 100%

Dew Point: 61 °F

Location of KunmingLocation

Past Weather in Kunming — Graph

°F

Kunming Temperature Yesterday

Maximum temperature yesterday: 75 °F (at 3:00 PM)
Minimum temperature yesterday: 57 °F (at 3:00 AM)
Average temperature yesterday: 65 °F

High & Low Weather Summary for the Past Weeks

 TemperatureHumidityPressure
High77 °F (Sep 14, 4:00 PM)100% (Sep 12, 7:00 AM)30.42 "Hg (Sep 12, 7:00 AM)
Low54 °F (Sep 12, 7:00 AM)39% (Sep 14, 4:00 PM)30.07 "Hg (Sep 24, 6:00 PM)
Average62 °F87%30.21 "Hg
* Reported Sep 12 7:00 AM — Sep 27 7:00 AM, Kunming, Weather by CustomWeather, © 2016

Note: Actual official high and low records may vary slightly from our data, if they occured in-between our weather recording intervals... More about our weather records

Advertising

Kunming Weather History for the Previous 24 Hours

Scroll right to see more
 ConditionsComfort  
Time TempWeatherWind HumidityBarometerVisibility
7:00 AM
Tue, Sep 27
61 °FFog.1 mph100%30.21 "Hg3 mi
6:00 AM59 °FMostly cloudy.1 mph100%30.18 "Hg4 mi
5:00 AM57 °FPassing clouds.1 mph100%30.18 "Hg4 mi
4:00 AM57 °FClear.No wind100%30.18 "Hg4 mi
3:00 AM59 °FClear.1 mph100%30.18 "Hg4 mi
2:00 AM59 °FClear.1 mph100%30.18 "Hg10 mi
1:00 AM59 °FClear.No wind100%30.18 "Hg10 mi
12:00 AM61 °FClear.3 mph94%30.18 "Hg10 mi
11:00 PM
Mon, Sep 26
61 °FClear.6 mph94%30.18 "Hg10 mi
10:00 PM63 °FClear.6 mph88%30.18 "Hg10 mi
9:00 PM64 °FClear.3 mph83%30.15 "Hg10 mi
8:00 PM66 °FClear.6 mph73%30.12 "Hg10 mi
7:00 PM70 °FSunny.6 mph64%30.09 "Hg10 mi
6:00 PM75 °FScattered clouds.10 mph54%30.09 "HgN/A
5:00 PM75 °FScattered clouds.13 mph54%30.09 "HgN/A
4:00 PM75 °FScattered clouds.13 mph54%30.09 "HgN/A
3:00 PM75 °FScattered clouds.10 mph54%30.12 "HgN/A
2:00 PM72 °FBroken clouds.10 mph61%30.15 "HgN/A
1:00 PM72 °FBroken clouds.13 mph65%30.18 "HgN/A
12:00 PM70 °FBroken clouds.13 mph73%30.21 "Hg6 mi
11:00 AM66 °FMore clouds than sun.13 mph83%30.21 "Hg4 mi
10:00 AM63 °FMore clouds than sun.10 mph94%30.21 "Hg4 mi
9:00 AM63 °FFog.6 mph94%30.21 "Hg2 mi
8:00 AM61 °FFog.8 mph100%30.18 "Hg2 mi
Weather by CustomWeather, © 2016

See weather overviewHow to use our weather pages